Temp
-13 -13 -13 -13 -14 -14 -13 -15 -12 -14 -13 -14 -13 -13 -13 -13 -13 -14 -14 -14 -14 -14 -14 -13 -13 -13 -13 -13 -13 -13 -13 -13 -13 -13 -13 -13 -13 -13 -13 -14 -14 -15 -15 -14
-12 -13 -13 -13 -14 -14 -14 -14 -14 -13 -14 -14 -13 -13 -13 -13 -13 -14 -14 -14 -14 -14 -14 -14 -14 -13 -13 -14 -13 -13 -13 -13 -13 -13 -13 -14 -14 -14 -14 -14 -14 -14 -15 -15
-13 -13 -13 -12 -13 -13 -14 -14 -15 -15 -15 -14 -14 -13 -13 -14 -14 -13 -14 -14 -14 -14 -14 -14 -14 -14 -14 -14 -14 -14 -14 -14 -14 -14 -14 -14 -14 -14 -14 -14 -14 -14 -14 -14
-13 -13 -13 -13 -13 -13 -13 -14 -16 -15 -15 -14 -14 -13 -13 -13 -14 -14 -14 -15 -15 -14 -14 -14 -14 -14 -14 -14 -14 -14 -14 -14 -14 -14 -14 -14 -14 -14 -14 -14 -14 -14 -14 -13
-13 -13 -13 -13 -14 -14 -14 -15 -16 -17 -16 -16 -15 -14 -14 -15 -15 -15 -16 -16 -15 -15 -14 -14 -14 -14 -15 -15 -14 -14 -14 -14 -14 -14 -14 -14 -14 -14 -14 -14 -14 -14 -14 -14
-14 -14 -13 -13 -14 -15 -15 -15 -15 -16 -16 -15 -14 -14 -14 -17 -17 -17 -17 -17 -16 -16 -15 -15 -15 -15 -14 -15 -15 -14 -15 -14 -14 -14 -14 -14 -14 -15 -15 -15 -14 -14 -14 -14
-15 -15 -14 -15 -16 -17 -17 -16 -16 -15 -15 -15 -15 -15 -14 -17 -17 -18 -18 -18 -18 -17 -17 -16 -16 -15 -15 -15 -15 -15 -15 -15 -15 -14 -15 -15 -15 -15 -15 -15 -15 -15 -15 -15
-15 -15 -14 -16 -18 -19 -19 -19 -18 -18 -18 -17 -17 -17 -18 -18 -18 -19 -19 -19 -20 -19 -19 -18 -18 -17 -16 -15 -15 -15 -15 -15 -15 -16 -14 -15 -15 -15 -15 -15 -15 -15 -15 -15
-17 -17 -18 -19 -20 -20 -19 -18 -18 -19 -20 -20 -19 -19 -19 -19 -19 -19 -19 -19 -19 -19 -18 -18 -18 -17 -16 -16 -16 -15 -15 -16 -16 -15 -15 -15 -15 -15 -15 -15 -15 -15 -15 -15
-20 -19 -19 -20 -21 -21 -21 -20 -20 -21 -20 -20 -19 -19 -19 -19 -19 -20 -20 -20 -19 -19 -19 -18 -18 -18 -17 -17 -16 -16 -16 -17 -17 -16 -15 -15 -15 -15 -15 -15 -15 -15 -15 -15
-19 -20 -21 -21 -21 -21 -21 -22 -21 -21 -21 -21 -21 -20 -20 -20 -20 -20 -20 -20 -20 -20 -19 -19 -19 -18 -18 -18 -17 -17 -17 -17 -18 -17 -16 -16 -15 -15 -15 -15 -16 -16 -16 -16
-22 -23 -23 -22 -23 -23 -22 -22 -22 -22 -22 -22 -23 -22 -22 -21 -21 -21 -21 -21 -21 -20 -20 -19 -19 -19 -20 -20 -19 -19 -19 -18 -19 -18 -17 -17 -16 -16 -16 -16 -16 -16 -16 -16
-23 -23 -23 -23 -23 -23 -23 -23 -23 -23 -23 -23 -23 -23 -23 -23 -23 -22 -22 -22 -22 -21 -21 -21 -21 -21 -21 -21 -21 -20 -20 -20 -19 -18 -17 -17 -17 -16 -16 -16 -16 -16 -16 -16
-24 -24 -24 -24 -24 -24 -24 -24 -24 -24 -24 -24 -23 -23 -24 -23 -23 -24 -23 -23 -23 -22 -22 -22 -21 -22 -22 -22 -22 -21 -21 -20 -21 -19 -18 -17 -17 -17 -17 -16 -16 -16 -16 -16
-25 -26 -25 -25 -25 -25 -25 -25 -25 -25 -25 -25 -25 -25 -25 -25 -25 -25 -25 -25 -25 -24 -24 -24 -23 -23 -23 -23 -23 -22 -22 -21 -20 -19 -18 -18 -17 -17 -17 -17 -16 -16 -16 -17
-26 -26 -26 -27 -27 -27 -28 -28 -29 -28 -28 -27 -28 -27 -27 -27 -27 -27 -26 -26 -25 -25 -25 -25 -25 -25 -24 -24 -23 -23 -23 -22 -21 -19 -18 -18 -17 -17 -17 -17 -17 -17 -17 -17
-29 -29 -30 -30 -30 -30 -30 -30 -29 -29 -29 -29 -29 -29 -29 -28 -27 -27 -27 -26 -26 -25 -25 -25 -24 -24 -24 -24 -24 -24 -23 -22 -22 -20 -19 -18 -18 -17 -18 -18 -17 -17 -17 -17
-31 -31 -31 -31 -30 -30 -30 -30 -30 -30 -30 -29 -29 -29 -28 -28 -27 -27 -27 -26 -25 -25 -25 -24 -24 -24 -24 -24 -24 -24 -23 -22 -21 -20 -20 -19 -18 -18 -18 -18 -18 -18 -17 -17
-31 -31 -31 -31 -31 -30 -30 -30 -30 -30 -30 -30 -29 -29 -28 -28 -28 -27 -26 -26 -26 -26 -26 -25 -24 -24 -23 -23 -23 -23 -22 -22 -21 -21 -19 -19 -18 -18 -18 -18 -18 -18 -18 -18
-31 -32 -32 -31 -31 -31 -31 -31 -31 -30 -30 -30 -30 -29 -29 -28 -28 -27 -26 -26 -27 -26 -26 -25 -24 -24 -23 -23 -22 -22 -22 -22 -21 -20 -19 -19 -18 -18 -18 -18 -18 -18 -18 -18
-34 -33 -32 -32 -32 -31 -31 -31 -31 -31 -30 -31 -30 -30 -29 -29 -28 -28 -27 -27 -27 -27 -26 -25 -24 -24 -23 -23 -22 -22 -21 -21 -20 -20 -19 -19 -18 -18 -18 -18 -18 -19 -18 -18
-34 -34 -34 -34 -33 -32 -32 -32 -31 -31 -31 -30 -30 -30 -30 -30 -29 -28 -28 -27 -27 -27 -26 -25 -24 -24 -24 -23 -23 -23 -22 -21 -20 -19 -19 -19 -19 -18 -18 -19 -19 -20 -19 -19
-34 -34 -34 -34 -33 -33 -32 -32 -32 -31 -31 -31 -31 -30 -30 -30 -30 -28 -28 -29 -27 -27 -26 -25 -24 -23 -23 -23 -23 -22 -22 -22 -21 -21 -20 -20 -20 -20 -20 -20 -20 -20 -20 -20
-34 -34 -34 -34 -33 -33 -32 -32 -32 -32 -31 -31 -31 -30 -30 -30 -29 -29 -28 -29 -28 -27 -26 -25 -24 -23 -23 -23 -22 -22 -22 -22 -22 -22 -22 -22 -22 -22 -22 -22 -21 -21 -21 -21
-34 -34 -33 -33 -33 -33 -32 -32 -32 -31 -31 -31 -31 -31 -30 -30 -29 -29 -29 -29 -27 -27 -26 -25 -24 -23 -23 -23 -22 -22 -22 -22 -22 -22 -22 -22 -22 -22 -21 -21 -21 -21 -21 -21
-34 -34 -34 -33 -33 -33 -32 -32 -32 -32 -32 -31 -31 -31 -30 -30 -30 -30 -29 -28 -28 -27 -26 -25 -25 -24 -23 -23 -23 -22 -22 -22 -22 -22 -22 -21 -21 -21 -21 -21 -21 -21 -21 -21
-34 -33 -33 -33 -33 -33 -33 -33 -33 -32 -32 -32 -31 -31 -30 -30 -30 -30 -29 -28 -27 -27 -25 -25 -25 -24 -23 -23 -23 -23 -23 -22 -22 -22 -22 -21 -21 -21 -21 -21 -21 -21 -21 -21
Height
5718 5714 5709 5706 5706 5700 5692 5690 5685 5686 5681 5677 5675 5672 5669 5669 5667 5665 5663 5660 5658 5655 5652 5650 5648 5646 5644 5643 5641 5639 5636 5634 5631 5630 5629 5628 5627 5624 5620 5615 5607 5600 5596 5592
5703 5704 5698 5696 5698 5690 5684 5678 5674 5673 5672 5667 5664 5661 5659 5660 5658 5657 5653 5650 5648 5646 5644 5641 5639 5637 5635 5632 5631 5631 5630 5627 5626 5624 5622 5621 5619 5615 5612 5607 5603 5597 5592 5587
5691 5687 5685 5687 5684 5681 5676 5667 5663 5662 5661 5654 5651 5649 5646 5645 5643 5644 5642 5640 5637 5634 5632 5630 5627 5626 5625 5623 5621 5619 5618 5618 5617 5616 5614 5612 5610 5607 5604 5600 5596 5592 5587 5582
5674 5672 5668 5668 5667 5666 5662 5653 5646 5647 5644 5642 5640 5636 5632 5631 5631 5632 5630 5627 5624 5622 5620 5618 5615 5614 5613 5610 5608 5608 5606 5604 5605 5604 5603 5602 5600 5598 5597 5593 5590 5586 5582 5576
5659 5657 5655 5655 5652 5650 5643 5641 5632 5631 5629 5626 5621 5620 5619 5620 5617 5616 5615 5613 5609 5606 5605 5605 5602 5600 5599 5598 5597 5594 5592 5592 5592 5591 5591 5591 5590 5588 5587 5586 5583 5580 5577 5574
5648 5643 5639 5637 5635 5629 5623 5621 5620 5614 5611 5607 5604 5603 5604 5604 5601 5599 5597 5594 5593 5591 5588 5587 5586 5585 5584 5582 5582 5581 5579 5579 5580 5578 5578 5578 5578 5578 5577 5576 5575 5573 5571 5568
5628 5622 5623 5625 5620 5614 5611 5609 5600 5594 5589 5587 5584 5581 5581 5583 5585 5582 5580 5578 5574 5570 5568 5569 5568 5568 5567 5565 5566 5563 5564 5564 5563 5564 5565 5566 5566 5566 5566 5565 5565 5564 5563 5562
5613 5607 5604 5602 5600 5596 5591 5587 5581 5576 5570 5568 5567 5567 5564 5560 5559 5557 5556 5554 5552 5549 5549 5549 5547 5545 5545 5546 5546 5544 5546 5547 5547 5547 5548 5551 5553 5554 5555 5555 5554 5554 5554 5553
5600 5594 5592 5586 5577 5573 5567 5560 5559 5555 5556 5553 5551 5549 5546 5543 5542 5538 5533 5530 5530 5529 5530 5529 5526 5521 5521 5525 5525 5524 5526 5529 5530 5531 5533 5535 5538 5541 5542 5543 5544 5544 5544 5544
5581 5580 5569 5567 5560 5551 5549 5546 5543 5540 5537 5534 5531 5528 5525 5522 5520 5518 5516 5513 5510 5508 5508 5509 5504 5500 5498 5500 5502 5502 5505 5508 5511 5514 5516 5519 5522 5526 5529 5531 5532 5533 5534 5534
5555 5552 5543 5543 5537 5535 5531 5527 5526 5524 5519 5514 5509 5510 5503 5503 5499 5495 5493 5492 5488 5486 5486 5488 5485 5481 5478 5476 5477 5479 5483 5488 5493 5497 5500 5501 5506 5510 5514 5517 5520 5521 5523 5524
5528 5528 5520 5519 5520 5518 5513 5509 5505 5500 5501 5498 5491 5489 5485 5484 5481 5477 5474 5471 5467 5464 5464 5465 5461 5459 5457 5453 5454 5456 5462 5468 5475 5480 5483 5484 5488 5493 5498 5503 5506 5508 5510 5512
5509 5504 5502 5503 5499 5494 5489 5486 5483 5481 5479 5475 5474 5472 5468 5466 5462 5459 5456 5452 5448 5448 5446 5443 5440 5441 5437 5434 5434 5438 5444 5450 5456 5463 5467 5469 5472 5477 5482 5487 5491 5495 5497 5499
5489 5488 5485 5481 5478 5473 5468 5469 5466 5463 5461 5458 5456 5452 5451 5450 5447 5442 5439 5436 5434 5431 5427 5424 5423 5423 5417 5417 5418 5422 5428 5433 5439 5447 5452 5455 5457 5462 5466 5471 5476 5480 5484 5487
5475 5470 5466 5463 5460 5456 5452 5448 5448 5446 5444 5442 5439 5437 5435 5434 5432 5429 5425 5421 5420 5417 5414 5411 5409 5407 5404 5403 5405 5408 5412 5417 5424 5431 5436 5441 5442 5446 5452 5458 5462 5467 5471 5474
5458 5455 5450 5445 5440 5436 5434 5432 5431 5430 5428 5427 5424 5423 5422 5421 5420 5418 5414 5411 5408 5406 5403 5399 5395 5393 5391 5390 5391 5394 5397 5402 5408 5416 5422 5426 5429 5433 5437 5443 5449 5453 5457 5460
5441 5438 5434 5431 5428 5426 5422 5419 5418 5418 5417 5415 5414 5412 5412 5410 5410 5407 5405 5402 5399 5394 5390 5388 5385 5382 5381 5380 5380 5382 5384 5389 5394 5402 5408 5411 5415 5419 5424 5428 5433 5438 5442 5446
5426 5426 5423 5422 5420 5416 5414 5411 5408 5407 5406 5404 5403 5402 5401 5399 5398 5398 5397 5395 5391 5386 5381 5377 5375 5373 5371 5370 5370 5371 5374 5377 5382 5388 5393 5397 5403 5408 5412 5417 5420 5424 5429 5432
5414 5413 5411 5409 5406 5403 5402 5400 5397 5395 5395 5392 5390 5390 5390 5389 5387 5387 5387 5383 5380 5378 5374 5369 5367 5364 5363 5363 5362 5363 5364 5367 5371 5376 5381 5386 5393 5398 5401 5404 5408 5411 5416 5420
5403 5399 5396 5394 5392 5389 5388 5386 5382 5382 5382 5379 5378 5379 5379 5379 5377 5378 5376 5373 5370 5369 5365 5361 5360 5357 5357 5356 5355 5355 5356 5357 5360 5365 5370 5375 5382 5385 5388 5390 5395 5399 5404 5407
5386 5385 5383 5381 5377 5374 5371 5369 5367 5367 5366 5364 5363 5363 5365 5368 5368 5367 5366 5364 5363 5360 5358 5354 5352 5350 5350 5349 5348 5349 5348 5351 5353 5356 5359 5364 5370 5373 5375 5378 5382 5386 5391 5394
5374 5372 5369 5364 5359 5356 5355 5350 5350 5348 5348 5348 5347 5348 5348 5353 5355 5358 5356 5354 5355 5353 5351 5348 5346 5344 5343 5343 5342 5343 5342 5342 5344 5345 5348 5352 5355 5360 5363 5366 5370 5374 5379 5382
5362 5359 5353 5347 5342 5337 5336 5335 5331 5328 5328 5329 5328 5329 5330 5335 5341 5345 5347 5347 5346 5346 5345 5343 5339 5337 5337 5337 5337 5339 5339 5337 5337 5338 5341 5344 5348 5352 5356 5360 5363 5366 5370 5373
5347 5342 5337 5334 5327 5322 5319 5319 5315 5312 5312 5310 5309 5310 5311 5318 5326 5330 5333 5338 5340 5340 5340 5337 5333 5331 5330 5330 5331 5333 5335 5337 5337 5338 5339 5342 5345 5348 5351 5355 5358 5361 5363 5365
5331 5327 5323 5318 5312 5309 5306 5305 5303 5301 5299 5298 5297 5297 5299 5303 5311 5317 5321 5328 5331 5333 5333 5331 5328 5326 5326 5326 5327 5329 5332 5334 5335 5337 5339 5342 5344 5347 5349 5352 5354 5356 5357 5358
5318 5313 5308 5304 5300 5298 5295 5293 5291 5290 5288 5288 5288 5288 5291 5294 5300 5306 5313 5320 5324 5326 5328 5327 5325 5325 5325 5325 5326 5328 5330 5332 5334 5336 5338 5340 5343 5344 5346 5347 5349 5350 5351 5351
5304 5300 5297 5295 5293 5288 5286 5285 5282 5281 5280 5279 5280 5280 5283 5288 5294 5300 5307 5313 5318 5321 5323 5324 5324 5326 5324 5325 5327 5329 5330 5331 5333 5334 5336 5338 5339 5341 5342 5343 5343 5343 5343 5342
Wind_Speed
43 42 40 40 35 39 45 43 43 39 40 42 42 42 41 37 36 34 32 30 31 30 28 29 29 29 29 28 26 24 21 20 20 22 21 23 24 26 27 28 30 30 29 27
48 44 46 44 34 41 46 47 47 45 44 46 46 47 46 41 38 36 36 35 35 35 35 32 33 34 33 33 34 32 30 22 25 24 25 26 27 27 27 29 30 29 26 27
48 47 47 44 40 39 42 46 47 43 42 46 48 49 48 47 44 40 40 40 40 38 38 38 38 34 33 35 36 35 34 33 31 31 32 30 30 30 28 28 28 27 24 22
51 51 54 53 47 44 46 49 50 49 49 51 50 51 50 50 48 45 45 44 44 44 42 45 45 44 40 38 39 38 39 37 38 38 37 36 33 31 30 29 27 21 23 21
55 54 54 53 51 53 54 50 51 49 50 50 54 56 56 54 55 53 51 50 51 51 51 49 49 49 44 42 40 41 42 43 39 41 40 39 37 32 31 29 26 22 20 17
58 57 57 56 54 57 61 59 57 57 58 62 63 62 61 54 54 53 53 54 55 55 55 53 53 52 51 50 46 45 44 45 43 43 41 40 38 35 31 30 29 26 21 17
62 64 62 55 55 56 55 57 60 65 69 69 67 69 68 63 55 53 53 54 57 59 60 57 56 55 55 56 53 52 47 42 45 44 44 43 41 38 35 31 30 28 25 21
63 66 68 63 59 57 57 58 63 65 65 68 69 68 66 65 62 59 56 57 58 61 61 61 61 61 60 61 59 59 53 47 41 47 45 45 45 41 37 35 32 30 28 25
66 67 66 62 63 63 65 70 68 70 69 70 70 67 64 62 60 60 61 62 60 60 59 59 59 61 59 59 65 68 65 55 49 46 51 46 46 45 39 36 34 32 29 28
63 61 63 61 63 67 66 66 67 65 66 67 66 66 65 64 60 59 58 58 58 57 55 52 55 57 58 60 60 65 67 62 55 51 47 52 47 47 42 39 36 35 32 31
64 63 63 62 64 64 65 65 65 64 63 63 63 63 63 60 60 61 59 56 56 55 51 48 52 56 58 60 62 64 67 65 54 49 50 49 51 49 48 42 40 37 36 34
71 63 68 69 61 58 61 61 62 61 57 55 56 57 58 57 57 56 54 52 53 53 51 47 50 54 57 61 64 63 60 59 53 48 48 41 55 51 49 47 43 41 37 34
68 69 70 66 62 61 60 60 59 57 54 57 55 54 55 53 52 52 51 52 53 51 49 49 50 51 54 57 60 59 56 51 52 51 46 40 50 52 49 49 46 43 41 38
65 63 62 60 60 59 61 58 57 55 56 56 54 54 52 50 49 50 50 50 48 48 45 43 42 42 47 51 51 51 49 47 41 47 51 48 39 55 52 51 50 47 44 41
58 56 56 55 56 56 56 56 54 54 52 51 52 51 49 47 44 42 41 41 39 40 37 39 38 39 43 45 45 43 43 42 42 43 46 46 43 41 57 51 51 48 46 44
44 45 47 50 52 54 53 51 48 50 48 45 45 42 39 34 29 29 30 32 36 37 39 37 36 33 34 38 40 40 37 34 42 44 46 45 42 42 42 58 51 48 48 48
37 38 40 43 40 40 36 40 41 36 36 36 34 36 27 26 29 35 33 32 37 42 36 33 30 31 30 31 31 33 33 35 36 46 44 43 45 41 42 43 59 54 50 50
29 36 40 38 36 37 40 39 40 41 36 36 37 34 31 32 29 30 31 30 24 28 30 30 28 30 28 28 30 31 29 34 39 40 42 38 41 41 46 44 46 60 54 49
38 37 39 41 45 47 48 49 45 42 39 35 36 37 38 35 35 23 28 15 18 27 24 22 31 25 25 28 29 27 30 32 37 36 36 38 37 39 41 48 48 53 54 52
44 46 48 49 50 49 51 46 44 45 50 45 41 39 32 34 34 33 37 32 22 24 25 25 22 21 23 25 26 26 30 34 35 34 42 35 38 40 41 44 47 48 49 46
50 51 52 55 57 58 54 56 53 55 51 53 48 46 44 38 37 32 39 41 35 26 27 22 22 21 20 21 21 22 27 31 32 30 33 39 40 42 43 42 40 44 50 52
53 51 51 51 53 50 44 48 59 62 59 56 55 53 54 49 42 39 43 44 35 27 23 19 19 22 23 22 21 12 13 23 25 23 21 24 27 36 43 40 37 38 41 45
55 52 51 51 51 49 46 40 42 44 50 62 66 63 55 50 48 41 38 38 34 27 20 17 15 14 18 17 14 13 7 9 9 11 14 15 18 21 25 27 29 30 32 34
46 49 48 48 50 48 42 37 39 40 40 43 45 52 53 52 54 50 43 31 28 26 19 14 13 14 11 11 11 13 13 8 7 7 6 8 11 13 16 19 21 23 25 26
43 45 47 46 47 45 40 36 34 33 33 35 36 37 37 34 36 36 35 28 22 19 13 10 9 10 8 7 7 8 12 13 11 10 10 10 11 12 13 15 17 18 20 22
41 42 44 43 42 38 36 34 30 27 28 28 27 28 27 24 22 25 28 20 19 20 14 7 8 12 8 5 5 7 7 7 7 7 6 7 9 10 11 12 15 18 21 23
36 33 31 28 23 26 28 29 30 29 26 21 20 24 23 24 21 29 27 21 18 18 11 3 3 2 9 9 7 7 6 5 3 1 1 4 7 10 13 15 17 18 21 23
Wind_Direction
297 298 294 294 293 290 293 293 295 293 291 288 287 288 289 294 296 298 294 294 294 294 290 286 281 276 275 279 281 290 296 281 264 264 261 272 286 301 307 314 328 321 307 290
291 293 296 295 293 284 290 292 293 289 289 288 286 288 284 290 286 287 288 291 293 288 292 293 283 277 275 273 273 276 280 268 275 261 264 275 285 294 302 303 311 312 303 297
297 296 290 293 290 290 288 286 288 290 289 287 286 284 282 283 282 280 280 285 285 285 284 286 287 281 277 275 272 271 270 269 267 266 267 273 281 287 295 297 305 309 313 289
297 296 295 297 295 292 289 287 284 284 281 283 284 282 280 282 280 278 278 277 278 276 278 281 281 282 281 275 273 270 267 264 263 265 268 272 275 282 286 289 298 304 314 306
291 293 294 290 287 289 289 285 286 286 285 283 283 283 281 282 283 281 278 275 273 271 272 272 274 276 279 279 276 272 267 264 262 263 265 269 272 272 277 281 283 292 301 322
289 287 287 288 289 288 287 287 285 282 282 282 283 281 281 279 281 281 280 279 277 275 273 270 268 270 273 277 276 270 272 265 265 262 262 263 267 269 269 271 273 277 284 295
289 287 284 286 286 285 283 281 281 282 283 284 284 284 285 290 288 282 279 276 274 274 274 272 272 270 269 268 271 268 266 271 261 261 262 263 263 265 265 263 264 268 270 274
285 285 289 290 292 289 283 282 279 279 276 276 284 290 293 291 291 288 281 278 277 277 277 277 276 272 267 262 264 263 265 263 269 254 256 260 260 261 260 260 259 259 265 264
282 284 284 289 285 285 283 281 282 281 286 288 288 290 290 289 287 285 285 284 282 281 280 279 276 273 269 262 260 261 262 263 262 264 250 253 256 255 256 254 256 255 257 262
286 284 278 280 278 278 280 281 282 284 285 286 286 287 288 287 288 286 284 283 282 280 278 275 270 268 266 263 259 259 259 264 263 259 262 244 250 251 250 252 248 252 251 254
284 285 283 282 281 284 284 282 283 283 285 287 288 287 287 288 287 286 286 285 284 283 280 274 267 265 263 262 260 258 258 260 260 254 255 247 240 246 246 246 247 246 248 249
288 286 285 285 285 282 284 285 285 286 288 285 284 284 284 286 286 287 288 287 286 283 282 275 267 262 261 260 259 258 257 257 253 248 250 251 236 241 243 243 243 244 244 245
282 281 284 288 288 287 286 286 287 288 285 283 283 282 284 285 287 287 288 286 285 284 280 275 271 268 264 262 260 259 260 256 254 244 250 249 240 237 240 241 241 243 243 243
286 288 287 286 286 284 283 284 284 282 282 283 284 284 284 285 286 287 287 286 287 285 285 282 277 270 264 262 261 260 257 253 246 241 245 248 246 235 238 238 241 241 243 246
286 285 285 283 281 278 277 276 276 277 278 279 280 283 286 287 289 290 289 287 286 288 292 295 286 275 267 266 263 258 252 249 233 234 244 246 242 243 235 240 241 242 243 246
282 278 276 275 274 277 280 284 284 283 283 285 289 290 288 286 283 278 287 290 288 288 292 290 292 282 274 271 265 256 251 244 231 228 235 239 246 244 244 237 242 243 243 245
275 271 271 276 283 282 278 282 283 281 283 283 285 295 282 266 271 268 276 294 299 298 293 293 281 285 278 277 265 258 249 233 235 230 231 235 239 243 243 248 240 241 245 246
264 269 272 270 266 263 271 283 285 280 286 277 279 281 277 272 274 267 275 286 300 306 300 294 287 286 277 269 265 256 245 231 232 232 236 234 236 242 244 242 250 242 241 247
257 264 268 269 268 266 274 276 273 272 275 271 268 267 269 276 275 266 262 282 318 322 303 295 293 283 278 279 277 257 247 234 232 227 235 239 235 241 247 240 248 246 242 246
268 274 273 272 266 270 271 273 273 268 268 272 274 271 267 270 279 266 265 273 297 304 326 307 285 270 273 270 270 267 245 242 241 238 229 228 237 245 245 239 242 247 244 255
287 288 290 288 280 270 269 268 269 271 273 260 266 273 271 268 263 278 277 269 282 294 310 306 287 272 257 258 262 261 255 246 242 241 232 231 230 240 244 240 239 244 247 252
290 291 295 294 293 289 286 279 267 267 264 266 266 271 274 269 264 269 278 274 275 286 304 310 296 285 267 262 264 252 245 242 238 227 224 228 232 238 237 235 237 243 249 252
289 292 293 290 294 295 290 287 278 275 270 262 262 266 267 270 265 264 270 281 271 283 298 311 295 288 285 276 260 237 215 246 233 230 230 232 230 233 239 244 245 247 250 253
289 291 294 296 296 294 291 286 284 280 275 270 269 267 268 267 257 263 266 272 259 270 290 312 297 283 271 256 236 222 207 201 198 189 194 217 228 232 235 238 241 243 243 244
293 294 294 294 292 292 292 292 288 284 278 276 271 269 269 264 251 252 257 251 249 262 278 313 330 313 294 274 235 218 215 205 201 206 204 208 217 223 227 232 239 244 249 255
291 292 293 292 293 294 292 291 291 288 284 277 273 266 259 248 229 223 222 229 237 257 266 314 354 298 261 236 186 161 157 161 171 190 196 215 227 235 244 255 263 267 270 274
295 294 292 292 291 289 291 294 296 294 292 289 263 257 242 225 215 207 209 217 226 248 248 277 355 200 124 120 131 135 128 114 101 105 256 281 285 284 281 280 282 282 276 274